Total_Precipitation_Accumulation
0.75 0.67 0.61 0.61 0.60 0.52 0.46 0.45 0.38 0.35 0.32 0.28 0.22 0.18 0.15 0.14 0.14 0.15 0.17 0.17 0.20 0.26 0.35 0.41 0.46 0.48 0.51 0.55 0.59 0.60 0.57 0.55 0.53 0.52 0.51 0.50 0.49 0.49 0.49 0.49 0.49 0.50 0.50
0.91 0.77 0.69 0.66 0.61 0.56 0.52 0.48 0.42 0.41 0.39 0.35 0.28 0.22 0.20 0.18 0.17 0.16 0.16 0.18 0.19 0.20 0.28 0.39 0.47 0.53 0.59 0.66 0.74 0.77 0.74 0.70 0.66 0.63 0.62 0.61 0.59 0.56 0.57 0.58 0.56 0.58 0.59
1.18 1.01 0.86 0.74 0.63 0.60 0.60 0.62 0.60 0.55 0.48 0.43 0.35 0.29 0.25 0.23 0.21 0.18 0.17 0.17 0.18 0.19 0.24 0.33 0.41 0.49 0.55 0.65 0.78 0.87 0.87 0.86 0.85 0.80 0.75 0.73 0.73 0.71 0.71 0.71 0.71 0.74 0.77
1.32 1.22 1.04 0.89 0.79 0.75 0.73 0.71 0.69 0.65 0.56 0.49 0.43 0.40 0.35 0.30 0.25 0.25 0.23 0.20 0.19 0.18 0.21 0.28 0.33 0.38 0.46 0.59 0.73 0.87 0.91 0.89 0.88 0.85 0.81 0.79 0.78 0.78 0.80 0.82 0.85 0.88 0.94
1.38 1.32 1.19 1.05 1.01 0.94 0.82 0.76 0.73 0.68 0.65 0.60 0.56 0.50 0.45 0.39 0.35 0.36 0.35 0.31 0.28 0.26 0.24 0.28 0.30 0.31 0.37 0.47 0.60 0.77 0.92 0.94 0.93 0.93 0.92 0.89 0.87 0.88 0.90 0.92 0.97 1.03 1.12
1.45 1.39 1.34 1.24 1.16 1.14 1.05 0.93 0.83 0.78 0.73 0.68 0.65 0.61 0.57 0.51 0.45 0.42 0.40 0.38 0.37 0.35 0.33 0.34 0.33 0.32 0.32 0.38 0.47 0.61 0.80 0.92 0.97 0.97 0.97 0.98 0.97 0.97 1.01 1.07 1.16 1.26 1.38
1.54 1.44 1.32 1.35 1.34 1.26 1.20 1.13 1.09 1.02 0.95 0.91 0.90 0.79 0.66 0.60 0.54 0.47 0.45 0.44 0.42 0.41 0.40 0.41 0.39 0.37 0.37 0.38 0.44 0.53 0.64 0.80 0.99 1.06 1.06 1.04 1.05 1.12 1.21 1.29 1.39 1.50 1.60
1.60 1.54 1.41 1.30 1.35 1.38 1.30 1.25 1.25 1.25 1.20 1.16 1.16 1.12 0.95 0.78 0.60 0.50 0.49 0.49 0.49 0.52 0.54 0.52 0.50 0.47 0.45 0.46 0.46 0.49 0.56 0.64 0.81 1.04 1.17 1.19 1.21 1.27 1.42 1.60 1.72 1.80 1.88
1.81 1.66 1.63 1.53 1.39 1.41 1.37 1.28 1.19 1.19 1.21 1.22 1.21 1.30 1.20 0.94 0.73 0.60 0.51 0.49 0.49 0.52 0.55 0.55 0.54 0.51 0.48 0.46 0.44 0.44 0.47 0.53 0.66 0.88 1.16 1.35 1.44 1.56 1.72 1.91 2.11 2.25 2.30
2.09 2.00 1.86 1.78 1.64 1.53 1.47 1.45 1.40 1.31 1.28 1.28 1.24 1.16 1.10 0.98 0.94 0.79 0.61 0.54 0.52 0.53 0.55 0.55 0.53 0.53 0.55 0.56 0.56 0.56 0.57 0.60 0.70 0.86 1.12 1.39 1.62 1.86 2.11 2.29 2.42 2.54 2.57
2.13 2.09 2.02 1.95 1.81 1.69 1.64 1.64 1.59 1.54 1.50 1.42 1.36 1.27 1.21 1.07 0.97 0.98 0.80 0.62 0.61 0.60 0.61 0.61 0.59 0.58 0.59 0.62 0.64 0.69 0.73 0.73 0.81 0.97 1.22 1.53 1.89 2.21 2.50 2.70 2.77 2.71 2.64
2.28 2.12 2.02 1.98 1.93 1.85 1.78 1.77 1.78 1.71 1.61 1.55 1.52 1.45 1.43 1.35 1.16 1.13 1.05 0.83 0.77 0.70 0.70 0.70 0.71 0.71 0.70 0.71 0.73 0.82 0.81 0.82 0.87 1.02 1.32 1.65 1.85 2.06 2.27 2.52 2.71 2.78 2.81
2.24 2.17 2.06 2.02 2.00 1.90 1.85 1.84 1.80 1.73 1.68 1.62 1.62 1.58 1.51 1.42 1.35 1.38 1.41 1.23 1.07 0.89 0.83 0.80 0.77 0.77 0.77 0.79 0.81 0.90 0.87 0.92 0.96 1.00 1.18 1.52 1.67 1.69 1.73 1.89 2.18 2.45 2.64
2.16 2.18 2.17 2.05 2.01 1.97 1.86 1.81 1.76 1.67 1.64 1.62 1.57 1.58 1.55 1.48 1.47 1.51 1.57 1.63 1.52 1.23 1.03 0.91 0.85 0.90 0.93 0.93 0.95 0.99 0.85 0.91 0.90 0.94 1.02 1.17 1.25 1.23 1.27 1.39 1.60 1.83 2.04
2.02 2.03 2.06 1.96 1.88 1.85 1.81 1.76 1.71 1.61 1.56 1.51 1.48 1.47 1.46 1.40 1.41 1.44 1.52 1.68 1.87 1.72 1.31 1.00 0.91 0.92 0.99 1.01 1.06 0.99 0.87 0.93 0.94 0.93 0.93 0.93 0.96 1.02 1.06 1.14 1.27 1.40 1.54
1.66 1.73 1.78 1.77 1.72 1.68 1.66 1.63 1.57 1.54 1.52 1.43 1.38 1.38 1.34 1.29 1.32 1.39 1.48 1.54 1.70 1.83 1.57 1.08 0.91 0.85 0.91 0.94 1.00 0.92 0.83 0.94 0.90 0.84 0.81 0.82 0.86 0.93 0.98 1.05 1.11 1.17 1.25
1.34 1.38 1.39 1.41 1.45 1.46 1.47 1.45 1.42 1.42 1.42 1.37 1.35 1.35 1.34 1.30 1.30 1.30 1.34 1.40 1.46 1.59 1.59 1.15 0.97 0.94 0.94 0.91 0.92 0.88 0.81 0.80 0.76 0.82 0.79 0.78 0.79 0.86 0.93 0.97 1.01 1.05 1.10
1.17 1.18 1.18 1.16 1.15 1.17 1.20 1.22 1.20 1.22 1.25 1.24 1.23 1.26 1.26 1.28 1.31 1.28 1.27 1.26 1.24 1.25 1.35 1.20 0.93 0.89 0.89 0.87 0.91 0.93 0.87 0.79 0.71 0.78 0.77 0.75 0.77 0.80 0.86 0.93 0.98 1.03 1.06
1.08 1.05 1.05 1.04 1.02 1.00 1.01 1.06 1.11 1.12 1.14 1.13 1.14 1.16 1.16 1.20 1.21 1.16 1.14 1.12 1.10 1.12 1.21 1.23 1.01 0.88 0.85 0.85 0.91 0.93 0.89 0.85 0.79 0.83 0.86 0.83 0.84 0.83 0.88 0.94 1.00 1.05 1.09
1.11 1.02 0.97 0.96 0.96 0.97 0.98 1.00 1.08 1.13 1.14 1.13 1.15 1.16 1.11 1.09 1.06 1.03 1.05 1.07 1.14 1.24 1.26 1.29 1.18 0.98 0.91 0.88 0.95 0.96 0.94 0.88 0.88 0.87 0.97 1.00 0.99 0.96 0.92 0.95 0.99 1.05 1.09
1.10 1.08 1.02 0.98 0.96 0.96 0.99 1.03 1.06 1.11 1.12 1.14 1.12 1.09 1.07 1.07 1.04 1.02 1.04 1.08 1.16 1.32 1.43 1.48 1.37 1.19 1.06 0.99 0.96 0.93 1.03 1.04 1.04 0.98 0.98 1.00 1.00 1.01 1.00 1.02 1.04 1.05 1.10
1.06 1.12 1.13 1.10 1.04 1.02 1.18 1.16 1.09 1.08 1.10 1.11 1.09 1.04 1.02 1.06 1.03 1.03 1.06 1.13 1.27 1.43 1.58 1.62 1.54 1.35 1.07 0.95 0.97 1.11 1.27 1.46 1.41 1.04 1.02 1.05 1.02 1.09 1.04 1.02 1.16 1.20 1.19
1.12 1.16 1.20 1.22 1.18 1.21 1.26 1.13 1.12 1.03 1.01 1.02 1.01 0.98 0.95 0.93 0.97 0.90 0.97 1.09 1.17 1.30 1.38 1.40 1.37 1.13 0.99 0.94 1.17 1.45 1.49 1.54 1.34 1.07 1.24 1.37 1.19 1.16 1.07 1.10 1.28 1.23 1.19
1.12 1.18 1.21 1.20 1.15 1.15 1.16 1.05 1.03 0.95 0.95 0.94 0.92 0.91 0.93 0.94 0.93 0.99 1.05 1.10 0.99 0.92 0.96 0.97 1.01 0.99 1.01 1.11 1.40 1.73 1.85 1.86 1.61 1.40 1.41 1.54 1.27 1.14 1.08 1.12 1.28 1.22 1.13
1.08 1.06 1.08 1.10 1.08 1.08 1.05 0.96 0.93 0.88 0.89 0.85 0.81 0.81 0.84 0.86 1.02 1.19 1.24 1.23 1.04 0.84 0.86 0.97 1.09 1.13 1.19 1.29 1.42 1.74 2.02 2.16 1.90 1.43 1.27 1.38 1.28 1.21 1.21 1.16 1.19 1.26 1.18
1.06 1.01 0.95 0.93 0.91 0.92 0.95 0.89 0.86 0.82 0.85 0.81 0.77 0.76 0.85 0.87 1.03 1.18 1.13 1.18 1.13 0.95 0.91 0.95 1.00 1.05 1.03 1.11 1.34 1.51 2.00 2.55 2.29 1.75 1.21 1.34 1.37 1.47 1.70 1.27 1.10 1.15 1.19